www.pogodaiklimat.ru

Погода и климат >> Архив погоды >> Австралия >> Южная Австралия >> Уудинна


ПОГОДА в Уудинне

  • Прогноз погоды в Уудинне
  • Монитор погоды в Уудинне

АРХИВ ПОГОДЫ в Уудинне

Время (UTC), дата Ветер
(напр.,м/с)
 
Видим.   Явления Облачность Т
(С)
Тd
(С)
f
(%)
Тe
(С)
Тes
(С)
Комфортность P
(гПа)
Po
(гПа)
Тmin
(С)
Tmax
(С)
R
(мм)
R24
(мм)
S
(см)
10 11.09 С 4 н/о н/о +16.8 -6.3 20 +17 +17 1023.4 1013.0
11 11.09 С 6 н/о н/о +20.6 -7.8 14 +20 +20 1023.4 1013.0
13 11.09 С 7 н/о н/о +19.6 -7.7 15 +19 +19 1022.4 1012.0
14 11.09 С 7 н/о н/о +19.7 -8.5 14 +19 +19 1022.1 1011.7 +29.6
16 11.09 С 8 н/о н/о +20.0 -8.3 14 +19 +19 1021.4 1011.0
17 11.09 С 8 н/о н/о +19.2 -8.0 15 +18 +18 1021.3 1010.9
19 11.09 СЗ 4 н/о н/о +14.4 -7.0 22 +14 +14 1022.3 1011.9
20 11.09 С 8 н/о н/о +16.7 -8.4 17 +15 +15 1021.9 1011.5
22 11.09 СЗ 4 н/о н/о +14.4 -3.4 29 +14 +14 1024.7 1014.2
23 11.09 ЮЗ 3 н/о н/о +17.2 +7.0 51 +17 +17 1025.4 1014.9
01 12.09 Ю 3 н/о н/о +20.8 +7.4 42 +22 +22 комфорт 1025.4 1014.9
02 12.09 Ю 4 н/о н/о +23.2 +6.1 33 +24 +24 комфорт 1025.0 1014.5 +11.6
04 12.09 Ю 3 н/о н/о +26.0 +5.0 26 +25 +25 комфорт 1023.5 1013.1
05 12.09 Ю 4 н/о н/о +27.4 +1.8 19 +26 +26 жарко 1022.8 1012.4
07 12.09 Ю 5 н/о н/о +27.2 +1.6 19 +25 +25 комфорт 1022.6 1012.2
08 12.09 Ю 5 н/о н/о +26.2 +2.8 22 +25 +25 комфорт 1022.8 1012.4
10 12.09 Ю 5 н/о н/о +18.6 +10.9 61 +19 +19 1024.6 1014.1
11 12.09 Ю 3 н/о н/о +15.8 +10.6 71 +15 +15 1025.7 1015.2
13 12.09 Ю 1 н/о н/о +11.4 +8.6 83 +11 +11 1025.8 1015.3
14 12.09 штиль 0 н/о н/о +7.7 +5.0 83 +7 +7 1026.0 1015.5 +28.2
16 12.09 СВ 2 н/о н/о +5.1 +3.1 87 +2 +2 1026.0 1015.5
17 12.09 СВ 2 н/о н/о +4.7 +3.0 89 +2 +2 1025.5 1015.0
19 12.09 штиль 0 н/о н/о +5.0 +3.5 90 +4 +4 1025.5 1015.0
20 12.09 штиль 0 н/о н/о +4.9 +3.7 92 +4 +4 1025.8 1015.3
22 12.09 Ю 3 н/о н/о +6.4 +5.4 93 +3 +3 1026.8 1016.3
23 12.09 ЮВ 3 н/о н/о +10.6 +7.7 82 +9 +9 1027.8 1017.3
01 13.09 Ю 2 н/о н/о +18.0 +8.6 54 +19 +19 1028.0 1017.5
02 13.09 Ю 4 н/о н/о +21.5 +8.4 43 +23 +23 комфорт 1027.8 1017.3 +3.9
04 13.09 Ю 5 н/о н/о +24.7 +4.5 27 +24 +24 комфорт 1026.3 1015.8
05 13.09 ЮВ 4 н/о н/о +25.2 +3.2 24 +24 +24 комфорт 1025.5 1015.0
07 13.09 Ю 5 н/о н/о +25.8 +1.2 20 +24 +24 комфорт 1025.6 1015.1
08 13.09 Ю 5 н/о н/о +24.8 +1.7 22 +24 +24 комфорт 1025.9 1015.4
10 13.09 ЮВ 5 н/о н/о +19.3 +3.5 35 +19 +19 1027.2 1016.7
11 13.09 В 4 н/о н/о +17.3 +1.7 35 +17 +17 1027.5 1017.0
13 13.09 В 2 н/о н/о +12.2 +1.2 47 +12 +12 1027.7 1017.2
14 13.09 В 2 н/о н/о +9.9 +1.3 55 +9 +9 1027.5 1017.0 +26.8
16 13.09 СВ 2 н/о н/о +10.2 +1.6 55 +9 +9 1026.5 1016.0
17 13.09 СВ 2 н/о н/о +9.4 +2.3 61 +8 +8 1025.8 1015.3
19 13.09 штиль 0 н/о н/о +7.1 +1.6 68 +7 +7 1024.8 1014.3
20 13.09 штиль 0 н/о н/о +6.2 +1.1 70 +6 +6 1024.8 1014.3
22 13.09 СВ 5 н/о н/о +19.1 +1.1 30 +19 +19 1024.9 1014.4
23 13.09 С 7 н/о н/о +21.1 +0.9 26 +21 +21 комфорт 1025.2 1014.7
01 14.09 С 7 н/о н/о +27.9 +1.4 18 +26 +26 жарко 1024.3 1013.8
02 14.09 С 7 н/о н/о +29.2 +1.7 17 +27 +27 жарко 1023.6 1013.2 +5.9
04 14.09 С 7 н/о н/о +31.7 -0.1 13 +29 +29 жарко 1022.1 1011.7
05 14.09 СЗ 7 н/о н/о +32.0 -0.9 12 +29 +29 жарко 1021.4 1011.0
07 14.09 З 4 н/о н/о +31.1 -0.5 13 +28 +28 жарко 1020.9 1010.5
08 14.09 Ю 6 н/о н/о +27.2 +3.7 22 +26 +26 жарко 1021.2 1010.8
10 14.09 СВ 3 н/о н/о +21.0 +3.7 32 +22 +22 комфорт 1021.6 1011.2
11 14.09 СВ 3 н/о н/о +21.2 +3.0 30 +21 +21 комфорт 1021.6 1011.2
13 14.09 СВ 4 н/о н/о +18.5 +2.8 35 +19 +19 1020.3 1009.9
14 14.09 СВ 4 н/о н/о +19.8 +0.8 28 +20 +20 1019.4 1009.0 +33.1
16 14.09 С 8 н/о н/о +23.3 -0.9 20 +22 +22 комфорт 1018.3 1007.9
17 14.09 С 8 н/о н/о +22.8 -0.6 21 +22 +22 комфорт 1018.0 1007.6
19 14.09 С 8 н/о н/о +22.7 -0.1 22 +22 +22 комфорт 1017.5 1007.1
20 14.09 С 8 н/о н/о +22.4 -0.3 22 +22 +22 комфорт 1017.6 1007.2
22 14.09 С 7 н/о н/о +22.8 0.0 22 +22 +22 комфорт 1018.4 1008.0
23 14.09 С 10 н/о н/о +25.6 -0.5 18 +24 +24 комфорт 1018.8 1008.4
01 15.09 С 8 н/о н/о +30.8 -1.9 12 +28 +28 жарко 1017.8 1007.4
02 15.09 СЗ 9 н/о н/о +32.2 -2.0 11 +29 +29 жарко 1017.5 1007.1 +17.0
04 15.09 С 5 н/о н/о +34.2 -1.7 10 +30 +30 жарко 1015.5 1005.1
05 15.09 СЗ 5 н/о н/о +35.0 -2.6 9 +31 +31 жарко 1014.9 1004.5
07 15.09 ЮЗ 7 н/о н/о +30.6 -0.9 13 +27 +27 жарко 1014.8 1004.4
08 15.09 ЮЗ 6 н/о н/о +28.2 -3.9 12 +25 +25 комфорт 1015.4 1005.0
10 15.09 Ю 5 н/о н/о +19.9 +7.0 43 +21 +21 комфорт 1017.3 1006.9
11 15.09 ЮВ 4 н/о н/о +19.1 +7.8 48 +20 +20 1017.5 1007.1
13 15.09 ЮВ 6 н/о н/о +17.3 +10.0 62 +17 +17 1018.9 1008.5
14 15.09 ЮВ 6 н/о н/о +16.1 +11.5 74 +15 +15 1019.0 1008.6 +35.6
16 15.09 Ю 6 н/о н/о +14.9 +11.3 79 +13 +13 1019.8 1009.4
17 15.09 Ю 6 н/о н/о +14.3 +10.5 78 +12 +12 1019.2 1008.8
19 15.09 Ю 5 н/о н/о +12.4 +7.7 73 +10 +10 1020.2 1009.8
20 15.09 Ю 6 н/о н/о +12.0 +6.5 69 +9 +9 1021.6 1011.2
22 15.09 ЮВ 5 н/о н/о +12.2 +6.7 69 +10 +10 1022.3 1011.9
23 15.09 Ю 7 н/о н/о +12.9 +6.3 64 +10 +10 1023.4 1013.0
01 16.09 ЮВ 7 н/о н/о +14.5 +5.0 53 +13 +13 1023.9 1013.5
02 16.09 Ю 8 н/о н/о +14.8 +4.2 49 +13 +13 1024.5 1014.0 +11.9
04 16.09 В 7 н/о н/о +15.8 +5.4 50 +14 +14 1024.2 1013.7
05 16.09 В 7 н/о н/о +17.4 +3.7 40 +16 +16 1023.7 1013.3
07 16.09 ЮВ 7 н/о н/о +16.4 +1.3 36 +15 +15 1024.3 1013.8
08 16.09 В 7 н/о н/о +15.7 +0.3 35 +14 +14 1024.8 1014.3
10 16.09 В 5 н/о н/о +12.0 +1.9 50 +10 +10 1026.5 1016.0
11 16.09 В 4 н/о н/о +10.5 +2.1 56 +8 +8 1027.3 1016.8
13 16.09 В 3 н/о н/о +7.9 +2.4 68 +6 +6 1027.9 1017.4
14 16.09 В 2 н/о н/о +5.2 +1.0 74 +3 +3 1028.0 1017.5 +18.6
16 16.09 В 2 н/о н/о 0.0 -2.2 85 -4 -4 1027.8 1017.3
17 16.09 В 2 н/о н/о -0.2 -1.9 88 -3 -3 1027.4 1016.9
19 16.09 В 3 н/о н/о +3.5 +2.3 92 -1 -1 1026.5 1016.0
20 16.09 В 5 н/о н/о +5.3 +2.0 79 +1 +1 1026.2 1015.7
22 16.09 В 4 н/о н/о +4.9 +1.4 78 +1 +1 1027.3 1016.8
23 16.09 В 4 н/о н/о +9.5 +2.1 60 +7 +7 1028.2 1017.7
01 17.09 СВ 6 н/о н/о +13.6 -1.2 36 +12 +12 1027.6 1017.1
02 17.09 В 6 н/о н/о +14.9 -3.4 28 +13 +13 1026.9 1016.4 -0.7
04 17.09 СВ 3 н/о н/о +18.4 -4.3 21 +19 +19 1025.1 1014.6
05 17.09 С 3 н/о н/о +19.7 -3.9 20 +20 +20 1024.5 1014.0
07 17.09 СВ 2 н/о н/о +20.3 -6.3 16 +20 +20 1023.7 1013.3
08 17.09 В 2 н/о н/о +19.8 -6.7 16 +20 +20 1023.8 1013.4
10 17.09 СВ 3 н/о н/о +8.8 -6.2 34 +7 +7 1024.6 1014.1
11 17.09 СЗ 2 н/о н/о +9.7 -5.8 33 +9 +9 1025.2 1014.7
13 17.09 В 2 н/о н/о +6.4 -5.9 41 +5 +5 1024.8 1014.3
14 17.09 В 3 н/о н/о +8.8 -4.7 38 +7 +7 1024.2 1013.7 +21.1
16 17.09 СВ 5 н/о н/о +10.8 -4.8 33 +9 +9 1023.5 1013.1
17 17.09 СВ 5 н/о н/о +10.2 -4.9 34 +8 +8 1022.8 1012.4
19 17.09 СВ 5 н/о н/о +10.2 -3.8 37 +8 +8 1020.9 1010.5
20 17.09 С 4 н/о н/о +10.5 -4.3 35 +9 +9 1022.0 1011.6
22 17.09 СВ 4 н/о н/о +10.8 -4.8 33 +9 +9 1022.8 1012.4
23 17.09 СВ 5 н/о н/о +14.9 -6.0 23 +14 +14 1023.1 1012.7
01 18.09 С 7 н/о н/о +21.1 -7.4 14 +20 +20 1021.3 1010.9
02 18.09 С 7 н/о н/о +23.4 -6.5 13 +21 +21 комфорт 1020.6 1010.2 +6.3
05 18.09 С 8 н/о н/о +25.5 -9.7 9 +23 +23 комфорт 1017.6 1007.2
07 18.09 СВ 8 н/о н/о +24.9 -8.8 10 +22 +22 комфорт 1015.8 1005.4
08 18.09 СВ 7 н/о н/о +23.2 -8.9 11 +21 +21 комфорт 1015.5 1005.1

 

Местоположение метеостанции Уудинна (Южная Австралия, Австралия): широта -33.05 долгота 135.45 высота над уровнем моря 87 м.

В архиве по умолчанию представлена погода в Уудинне за последнюю неделю. Архивные данные за месяц целиком и за предыдущие месяцы, начиная с января 2011 года, Вы можете получить, выбрав интересующий диапазон дат из раскрывающегося списка и нажав кнопку "Ввод!".


*Определитесь, кто Вы:
робот инопланетянин человек

Внимание! Время в таблицах - всемирное. Для получения местного времени необходимо прибавить поправку, которая равна 9.5 ч.

Смотрите также архив погоды в соседних городах и на ближайших метеорологических станциях:

Погода в Миннипа Пирса (Южная Австралия, Австралия) (36 км)
Погода в Кливе аэропорту (Южная Австралия, Австралия) (123 км)
Погода в Камминсе (Южная Австралия, Австралия) (136 км)
Погода в Колте (Южная Австралия, Австралия) (148 км)
Погода в Порт-Линкольне (Южная Австралия, Австралия) (177 км)
Погода в Уиолле (Южная Австралия, Австралия) (193 км)
Погода в Сидуне (Южная Австралия, Австралия) (193 км)
Погода в Мунте (Южная Австралия, Австралия) (220 км)
Погода в Порт Огаста (Южная Австралия, Австралия) (220 км)
Погода в Кадине (Южная Австралия, Австралия) (230 км)

Пояснения к столбцам:

Ветер - указаны скорость ветра в м/с - средняя за 10 мин, порывы в срок и между сроками (в фигурных скобках) и направление, откуда дует ветер: С - северный, СВ - северо-восточный, В - восточный, ЮВ - юго-восточный, Ю - южный, ЮЗ - юго-западный, З - западный, СЗ - северо-западный.
Видимость - горизонтальная дальность видимости в метрах или километрах. При видимости от 1 до 10 км при отсутствии осадков обычно наблюдается дымка, при ухудшении видимости до 1 км и менее - туман. В сухую погоду видимость может ухудшаться дымом, пылью или мглою.
Явления - указаны атмосферные явления, наблюдавшиеся в срок или в последний час перед сроком; фигурными скобками обозначены явления, наблюдавшиеся между сроками (за 1-3 часа до срока); квадратными скобками обозначены град или гололедные отложения с указанием их диаметра в мм.
Облачность - указаны через наклонную черту общая и нижняя облачность в баллах и высота нижней границы облаков в метрах; квадратными скобками обозначены формы облаков: Ci - перистые, Cs - перисто-слоистые, Cc - перисто-кучевые, Ac - высококучевые, As - высокослоистые, Sc - слоисто-кучевые, Ns - слоисто-дождевые, Cu - кучевые, Cb - кучево-дождевые. Подробнее классификацию облаков см. в Атласе облаков (PDF).
T - Температура воздуха - температура, измеренная на высоте 2 м над землей.
Td - Температура точки росы - температура, при понижении до которой содержащийся в воздухе водяной пар достигнет насыщения.
f - Относительная влажность воздуха - влажноcть воздуха, измеренная на высоте 2 м над землей.
Te - Эффективная температура - температура, которую ощущает одетый по сезону человек в тени. Характеристика душности погоды. При расчете учитывается влияние влажности воздуха и скорости ветра на теплоощущения человека.
Tes - Эффективная температура на солнце - температура, которую ощущает человек, с поправкой на солнечный нагрев. Характеристика знойности погоды. Зависит от высоты солнца над горизонтом, облачности и скорости ветра. Ночью, в пасмурную погоду, а также при ветре 12 м/с и более поправка равна нулю.
P - Атмосферное давление - приведенное к уровню моря атмосферное давление.
Po - Атмосферное давление - измеренное на уровне метеостанции атмосферное давление.
Tmin - Минимальная температура - минимум температуры воздуха на высоте 2 м над землей.
Tmax - Максимальная температура - максимум температуры воздуха на высоте 2 м над землей.
R - Количество осадков - Количество выпавших осадков за период времени, мм. При наведении курсора мыши на число - период времени, за который выпало указанное количество осадков.
R24 - Количество осадков - Количество выпавших осадков за 24 часа, мм.
S - Снежный покров - Высота снежного покрова, см. При наведении курсора мыши на число - состояние снежного покрова и степень покрытия местности в баллах.